Terminal Aerodrome Forecast
Issued by NWS Wilmington, OH

Current Version | Previous Version | Graphics & Text | Print | Product List | Glossary On
Versions: 1 2 3 4 5 6 7 8 9 10 11 12 13 14 15 16 17 18 19 20 21 22 23 24 25 26 27 28
000
FTUS41 KILN 200200 AAA
TAFCMH
TAF AMD
KCMH 200205Z 2002/2024 VRB03KT P6SM BKN040
     FM200700 VRB03KT P6SM OVC012
      TEMPO 2008/2012 5SM BR
     FM201400 13004KT P6SM OVC025
     FM201800 13005KT P6SM BKN035=

USA.gov is the U.S. government's official web portal to all federal, state and local government web resources and services.